Simultaneous Nadir Overpasses (SNOs) Predictions

Prediction of SNOs near US between AQUA and NPP Satellite Orbit:

Table of predicted SNOs near US for the next 10.0 days since TLE Epoch: 10/15/2022
Index Date (AQUA) Time (AQUA) AQUA Lat,Lon Date (NPP) Time (NPP) NPP Lat,Lon Distance(km) Time Diff (sec)
1 10/20/2022 07:52:14 40.01, -85.77 10/20/2022 07:49:27 40.46, -88.45 232.70 167
2 10/20/2022 09:28:32 49.16,-107.19 10/20/2022 09:28:18 49.64,-110.29 230.31 14
3 10/22/2022 20:25:39 49.96,-110.96 10/22/2022 20:18:19 49.52,-113.48 187.53 440
